DECAYED

DMSP 5D-2 F13 DEB, 40606 (Decayed)

Orbit data source: Space-Track

DMSP 5D-2 F13 DEB, 40606 was space debris in SSO originally from a launch on Fri, 24 Mar 1995 UTC launched from the Air Force Western Test Range (AFWTR). Debris objects in space refer to the collection of defunct objects orbiting the Earth. Examples of debris include non-operational satellites, rocket bodies, and fragments generated from explosions, collisions, or faulty payload assembly.

Not visible in the next 10 days
Identifier
40606, 1995-015FD
Orbit
Decayed
Country
Flag of USUS
Related business
Manufacturer
Unknown
Mission
Decayed spacecraft
Bus & Motor
Unknown
Mass
Unknown
Launch date (UTC)
1995-03-24 (31 years ago)
Launch vehicle
Unknown
Launch site
Air Force Western Test Range (AFWTR)
Object type
Payload
Rocket body
Debris
Shape & HBR
Unknown shape, 0.1 m
Radar Cross Section
Small (<0.1 m²)

Expand to show TLE details & history
Last TLE update: 1 year ago

TLE from 1 year ago
0 DMSP 5D-2 F13 DEB
1 40606U 95015FD  25103.44123358  .00315518  00000-0  22705-1 0  9997
2 40606  98.6890 171.9795 0011310 220.5793 139.4587 15.02519338520732
Epoch: 2025-04-13T10:35Z
TLE epoch observation values (Epoch: 2025-04-13T10:35:22.581Z)
Latitude
0.00003°
Longitude
171.26491°
Altitude
568.125 km
Speed
7.574 km/s
True Right ascension
11h 27m 55s
True Declination
0° 00' 00"
Sunlit
Object was in full shadow at epoch
Visualization orbit readout
Latitude
Unknown
Longitude
Unknown
Altitude
Unknown
Speed
Unknown
Apparent Right ascension
Unknown
Apparent Declination
Unknown
Sunlit
N/A
Visualization observer readout
Local Sidereal Time
14:43:00
Azimuth
Unknown
Elevation
Unknown
Doppler factor
Unknown
Orbital elements
Apogee altitude
564.022 km
Perigee altitude
548.336 km
Semi-major axis
6,934.316 km
Eccentricity
0.00113
Inclination
98.689°
RAAN
171.9795°
Arg. of periapsis
220.5793°
True anomaly
139.54285°
Mean anomaly
139.4587°
Eccentric anomaly
139.50078°
Mean motion
3.7587 °/min
Orbital period
95.78 mins
BSTAR
0.022705
Loading maneuver chart data...
Computing Atmospheric mass density...
Loading historical data...
Loading historical data...
Loading historical data...
Loading historical data...
Loading historical data...
Loading historical data...
Loading historical data...

Documentation

Showing up to 5 results
|